Time,TemperatureF,DewpointF,PressureIn,WindDirection,WindDirectionDegrees,WindSpeedMPH,WindSpeedGustMPH,Humidity,HourlyPrecipIn,Conditions,Clouds,dailyrainin,SoftwareType,DateUTC
2013-06-19 00:01:00,70.8,58.9,29.92,SSE,155,0.0,5.0,66,0.00,,,0.00,VWS V14.00,2013-06-19 05:01:00,
2013-06-19 00:06:00,70.7,58.8,29.93,SSE,165,1.0,2.0,66,0.00,,,0.00,VWS V14.00,2013-06-19 05:06:00,
2013-06-19 00:11:00,70.6,58.7,29.93,SSE,159,0.0,3.0,66,0.00,,,0.00,VWS V14.00,2013-06-19 05:11:00,
2013-06-19 00:16:00,70.5,58.6,29.92,SSE,159,0.0,3.0,66,0.00,,,0.00,VWS V14.00,2013-06-19 05:16:00,
2013-06-19 00:21:00,70.4,58.9,29.93,SSE,158,0.0,3.0,67,0.00,,,0.00,VWS V14.00,2013-06-19 05:21:00,
2013-06-19 00:26:00,70.3,58.8,29.93,SSE,157,0.0,3.0,67,0.00,,,0.00,VWS V14.00,2013-06-19 05:26:00,
2013-06-19 00:31:00,70.2,59.2,29.93,SSE,158,0.0,3.0,68,0.00,,,0.00,VWS V14.00,2013-06-19 05:31:00,
2013-06-19 00:36:00,70.0,59.0,29.93,SSE,158,0.0,0.0,68,0.00,,,0.00,VWS V14.00,2013-06-19 05:36:00,
2013-06-19 00:41:00,69.9,59.3,29.93,SSE,158,0.0,0.0,69,0.00,,,0.00,VWS V14.00,2013-06-19 05:41:00,
2013-06-19 00:46:00,69.7,59.1,29.93,SSE,158,0.0,0.0,69,0.00,,,0.00,VWS V14.00,2013-06-19 05:46:00,
2013-06-19 00:51:00,69.6,59.4,29.93,SSE,158,0.0,0.0,70,0.00,,,0.00,VWS V14.00,2013-06-19 05:51:00,
2013-06-19 00:56:00,69.5,59.3,29.93,SSE,157,0.0,0.0,70,0.00,,,0.00,VWS V14.00,2013-06-19 05:56:00,
2013-06-19 01:01:00,69.4,59.2,29.93,SSE,157,0.0,0.0,70,0.00,,,0.00,VWS V14.00,2013-06-19 06:01:00,
2013-06-19 01:06:00,69.3,59.5,29.92,SSE,157,0.0,0.0,71,0.00,,,0.00,VWS V14.00,2013-06-19 06:06:00,
2013-06-19 01:11:00,69.2,59.4,29.92,SSE,158,0.0,0.0,71,0.00,,,0.00,VWS V14.00,2013-06-19 06:11:00,
2013-06-19 01:16:00,69.0,59.2,29.92,SSE,157,0.0,0.0,71,0.00,,,0.00,VWS V14.00,2013-06-19 06:16:00,
2013-06-19 01:21:00,68.8,59.4,29.92,SSE,157,0.0,0.0,72,0.00,,,0.00,VWS V14.00,2013-06-19 06:21:00,
2013-06-19 01:26:00,68.6,59.6,29.92,SSE,156,0.0,0.0,73,0.00,,,0.00,VWS V14.00,2013-06-19 06:26:00,
2013-06-19 01:31:00,68.4,59.4,29.92,SSE,156,0.0,0.0,73,0.00,,,0.00,VWS V14.00,2013-06-19 06:31:00,
2013-06-19 01:36:00,68.2,59.2,29.92,SSE,156,0.0,0.0,73,0.00,,,0.00,VWS V14.00,2013-06-19 06:36:00,
2013-06-19 01:41:00,68.1,59.5,29.92,SSE,156,0.0,0.0,74,0.00,,,0.00,VWS V14.00,2013-06-19 06:41:00,
2013-06-19 01:46:00,67.9,59.3,29.92,SSE,156,0.0,0.0,74,0.00,,,0.00,VWS V14.00,2013-06-19 06:46:00,
2013-06-19 01:51:00,67.8,59.6,29.91,SSE,156,0.0,0.0,75,0.00,,,0.00,VWS V14.00,2013-06-19 06:51:00,
2013-06-19 01:56:00,67.6,59.4,29.91,SSE,151,0.0,1.0,75,0.00,,,0.00,VWS V14.00,2013-06-19 06:56:00,
2013-06-19 02:01:00,67.5,59.7,29.91,East,98,0.0,1.0,76,0.00,,,0.00,VWS V14.00,2013-06-19 07:01:00,
2013-06-19 02:06:00,67.4,60.0,29.91,East,98,0.0,0.0,77,0.00,,,0.00,VWS V14.00,2013-06-19 07:06:00,
2013-06-19 02:11:00,67.3,59.8,29.91,East,98,0.0,0.0,77,0.00,,,0.00,VWS V14.00,2013-06-19 07:11:00,
2013-06-19 02:16:00,67.2,59.8,29.91,East,98,0.0,1.0,77,0.00,,,0.00,VWS V14.00,2013-06-19 07:16:00,
2013-06-19 02:20:00,67.1,59.7,29.90,East,98,0.0,1.0,77,0.00,,,0.00,VWS V14.00,2013-06-19 07:20:00,
2013-06-19 02:25:00,67.0,59.6,29.90,East,98,0.0,1.0,77,0.00,,,0.00,VWS V14.00,2013-06-19 07:25:00,
2013-06-19 02:30:00,66.8,59.7,29.90,East,98,0.0,1.0,78,0.00,,,0.00,VWS V14.00,2013-06-19 07:30:00,
2013-06-19 02:35:00,66.8,59.7,29.90,East,98,0.0,0.0,78,0.00,,,0.00,VWS V14.00,2013-06-19 07:35:00,
2013-06-19 02:40:00,66.7,59.6,29.90,East,98,0.0,0.0,78,0.00,,,0.00,VWS V14.00,2013-06-19 07:40:00,
2013-06-19 02:45:00,66.6,59.5,29.90,ESE,102,0.0,1.0,78,0.00,,,0.00,VWS V14.00,2013-06-19 07:45:00,
2013-06-19 02:50:00,66.5,59.8,29.90,ESE,102,0.0,1.0,79,0.00,,,0.00,VWS V14.00,2013-06-19 07:50:00,
2013-06-19 02:55:00,66.4,59.7,29.90,ESE,102,0.0,1.0,79,0.00,,,0.00,VWS V14.00,2013-06-19 07:55:00,
2013-06-19 03:00:00,66.3,59.6,29.90,ESE,117,0.0,3.0,79,0.00,,,0.00,VWS V14.00,2013-06-19 08:00:00,
2013-06-19 03:05:00,66.3,59.6,29.90,ESE,119,0.0,0.0,79,0.00,,,0.00,VWS V14.00,2013-06-19 08:05:00,
2013-06-19 03:10:00,66.3,60.0,29.90,ENE,67,0.0,2.0,80,0.00,,,0.00,VWS V14.00,2013-06-19 08:10:00,
2013-06-19 03:15:00,66.3,60.0,29.90,SE,146,0.0,6.0,80,0.00,,,0.00,VWS V14.00,2013-06-19 08:15:00,
2013-06-19 03:20:00,66.4,60.0,29.91,SE,137,3.0,6.0,80,0.00,,,0.00,VWS V14.00,2013-06-19 08:20:00,
2013-06-19 03:25:00,66.3,60.0,29.91,SE,135,0.0,6.0,80,0.00,,,0.00,VWS V14.00,2013-06-19 08:25:00,
2013-06-19 03:30:00,66.2,59.9,29.91,ESE,122,0.0,6.0,80,0.00,,,0.00,VWS V14.00,2013-06-19 08:30:00,
2013-06-19 03:35:00,66.2,59.9,29.91,ESE,122,0.0,0.0,80,0.00,,,0.00,VWS V14.00,2013-06-19 08:35:00,
2013-06-19 03:40:00,66.1,60.1,29.91,SE,146,0.0,4.0,81,0.00,,,0.00,VWS V14.00,2013-06-19 08:40:00,
2013-06-19 03:45:00,66.0,60.0,29.91,SE,132,0.0,4.0,81,0.00,,,0.00,VWS V14.00,2013-06-19 08:45:00,
2013-06-19 03:50:00,66.0,60.0,29.90,SE,140,0.0,4.0,81,0.00,,,0.00,VWS V14.00,2013-06-19 08:50:00,
2013-06-19 03:55:00,65.9,59.9,29.90,SE,142,0.0,4.0,81,0.00,,,0.00,VWS V14.00,2013-06-19 08:55:00,
2013-06-19 04:00:00,65.8,60.2,29.91,SE,141,0.0,4.0,82,0.00,,,0.00,VWS V14.00,2013-06-19 09:00:00,
2013-06-19 04:05:00,65.8,60.2,29.91,SE,141,0.0,0.0,82,0.00,,,0.00,VWS V14.00,2013-06-19 09:05:00,
2013-06-19 04:10:00,65.7,60.1,29.90,SE,136,0.0,1.0,82,0.00,,,0.00,VWS V14.00,2013-06-19 09:10:00,
2013-06-19 04:15:00,65.5,59.9,29.90,SE,131,0.0,1.0,82,0.00,,,0.00,VWS V14.00,2013-06-19 09:15:00,
2013-06-19 04:20:00,65.4,59.8,29.90,SE,130,0.0,1.0,82,0.00,,,0.00,VWS V14.00,2013-06-19 09:20:00,
2013-06-19 04:25:00,65.3,59.7,29.90,SE,129,0.0,1.0,82,0.00,,,0.00,VWS V14.00,2013-06-19 09:25:00,
2013-06-19 04:30:00,65.3,60.0,29.90,SE,132,0.0,2.0,83,0.00,,,0.00,VWS V14.00,2013-06-19 09:30:00,
2013-06-19 04:35:00,65.2,59.9,29.90,SE,132,0.0,0.0,83,0.00,,,0.00,VWS V14.00,2013-06-19 09:35:00,
2013-06-19 04:40:00,65.2,59.9,29.90,SE,133,0.0,2.0,83,0.00,,,0.00,VWS V14.00,2013-06-19 09:40:00,
2013-06-19 04:45:00,65.2,59.9,29.90,SE,131,0.0,2.0,83,0.00,,,0.00,VWS V14.00,2013-06-19 09:45:00,
2013-06-19 04:50:00,65.1,59.8,29.90,SE,131,0.0,2.0,83,0.00,,,0.00,VWS V14.00,2013-06-19 09:50:00,
2013-06-19 04:55:00,65.1,59.8,29.91,SE,131,0.0,2.0,83,0.00,,,0.00,VWS V14.00,2013-06-19 09:55:00,
2013-06-19 05:00:00,65.0,59.7,29.90,SE,130,0.0,2.0,83,0.00,,,0.00,VWS V14.00,2013-06-19 10:00:00,
2013-06-19 05:05:00,64.9,59.6,29.90,SE,129,0.0,2.0,83,0.00,,,0.00,VWS V14.00,2013-06-19 10:05:00,
2013-06-19 05:10:00,64.8,59.5,29.90,SE,129,0.0,0.0,83,0.00,,,0.00,VWS V14.00,2013-06-19 10:10:00,
2013-06-19 05:15:00,64.8,59.5,29.90,SE,129,0.0,2.0,83,0.00,,,0.00,VWS V14.00,2013-06-19 10:15:00,
2013-06-19 05:20:00,64.7,59.4,29.90,SE,129,0.0,2.0,83,0.00,,,0.00,VWS V14.00,2013-06-19 10:20:00,
2013-06-19 05:25:00,64.5,59.6,29.90,ESE,123,0.0,2.0,84,0.00,,,0.00,VWS V14.00,2013-06-19 10:25:00,
2013-06-19 05:30:00,64.3,59.4,29.90,ESE,123,0.0,2.0,84,0.00,,,0.00,VWS V14.00,2013-06-19 10:30:00,
2013-06-19 05:35:00,64.2,59.3,29.90,ESE,123,0.0,2.0,84,0.00,,,0.00,VWS V14.00,2013-06-19 10:35:00,
2013-06-19 05:40:00,64.1,59.2,29.90,ESE,123,0.0,3.0,84,0.00,,,0.00,VWS V14.00,2013-06-19 10:40:00,
2013-06-19 05:45:00,64.0,59.4,29.89,ESE,123,0.0,3.0,85,0.00,,,0.00,VWS V14.00,2013-06-19 10:45:00,
2013-06-19 05:50:00,63.8,59.2,29.90,ESE,123,0.0,3.0,85,0.00,,,0.00,VWS V14.00,2013-06-19 10:50:00,
2013-06-19 05:55:00,63.8,59.2,29.89,ESE,121,0.0,3.0,85,0.00,,,0.00,VWS V14.00,2013-06-19 10:55:00,
2013-06-19 06:00:00,63.6,59.0,29.89,ESE,121,0.0,3.0,85,0.00,,,0.00,VWS V14.00,2013-06-19 11:00:00,
2013-06-19 06:05:00,63.5,58.9,29.90,ESE,121,0.0,3.0,85,0.00,,,0.00,VWS V14.00,2013-06-19 11:05:00,
2013-06-19 06:10:00,63.5,59.2,29.90,ESE,121,0.0,0.0,86,0.00,,,0.00,VWS V14.00,2013-06-19 11:10:00,
2013-06-19 06:15:00,63.4,59.2,29.91,ESE,121,0.0,0.0,86,0.00,,,0.00,VWS V14.00,2013-06-19 11:15:00,
2013-06-19 06:20:00,63.4,59.2,29.91,ESE,121,0.0,3.0,86,0.00,,,0.00,VWS V14.00,2013-06-19 11:20:00,
2013-06-19 06:25:00,63.2,59.0,29.91,ESE,110,0.0,3.0,86,0.00,,,0.00,VWS V14.00,2013-06-19 11:25:00,
2013-06-19 06:30:00,63.2,59.0,29.91,ESE,111,0.0,3.0,86,0.00,,,0.00,VWS V14.00,2013-06-19 11:30:00,
2013-06-19 06:35:00,63.2,59.0,29.92,ESE,111,0.0,3.0,86,0.00,,,0.00,VWS V14.00,2013-06-19 11:35:00,
2013-06-19 06:40:00,63.1,58.8,29.92,ESE,113,0.0,0.0,86,0.00,,,0.00,VWS V14.00,2013-06-19 11:40:00,
2013-06-19 06:45:00,63.1,59.2,29.92,ESE,113,0.0,1.0,87,0.00,,,0.00,VWS V14.00,2013-06-19 11:45:00,
2013-06-19 06:50:00,63.0,59.1,29.92,ESE,113,0.0,1.0,87,0.00,,,0.00,VWS V14.00,2013-06-19 11:50:00,
2013-06-19 06:55:00,63.1,59.2,29.92,ESE,115,0.0,5.0,87,0.00,,,0.00,VWS V14.00,2013-06-19 11:55:00,
2013-06-19 07:00:00,63.2,59.3,29.92,ESE,115,0.0,5.0,87,0.00,,,0.00,VWS V14.00,2013-06-19 12:00:00,
2013-06-19 07:05:00,63.4,59.8,29.92,ESE,112,0.0,5.0,88,0.00,,,0.00,VWS V14.00,2013-06-19 12:05:00,
2013-06-19 07:10:00,63.6,60.0,29.92,ESE,117,5.0,6.0,88,0.00,,,0.00,VWS V14.00,2013-06-19 12:10:00,
2013-06-19 07:15:00,63.9,60.3,29.91,East,98,0.0,6.0,88,0.00,,,0.00,VWS V14.00,2013-06-19 12:15:00,
2013-06-19 07:20:00,64.3,60.7,29.91,ESE,114,4.0,6.0,88,0.00,,,0.00,VWS V14.00,2013-06-19 12:20:00,
2013-06-19 07:25:00,64.8,60.8,29.91,East,99,3.0,6.0,87,0.00,,,0.00,VWS V14.00,2013-06-19 12:25:00,
2013-06-19 07:30:00,65.3,61.0,29.91,ESE,112,4.0,6.0,86,0.00,,,0.00,VWS V14.00,2013-06-19 12:30:00,
2013-06-19 07:35:00,65.6,61.0,29.91,East,84,1.0,7.0,85,0.00,,,0.00,VWS V14.00,2013-06-19 12:35:00,
2013-06-19 07:40:00,66.0,61.4,29.91,ESE,111,6.0,10.0,85,0.00,,,0.00,VWS V14.00,2013-06-19 12:40:00,
2013-06-19 07:45:00,66.5,61.5,29.91,ESE,121,3.0,10.0,84,0.00,,,0.00,VWS V14.00,2013-06-19 12:45:00,
2013-06-19 07:50:00,66.9,61.6,29.91,ESE,103,6.0,10.0,83,0.00,,,0.00,VWS V14.00,2013-06-19 12:50:00,
2013-06-19 07:55:00,67.5,61.8,29.91,ESE,108,4.0,11.0,82,0.00,,,0.00,VWS V14.00,2013-06-19 12:55:00,
2013-06-19 08:00:00,68.0,62.0,29.91,SE,145,4.0,11.0,81,0.00,,,0.00,VWS V14.00,2013-06-19 13:00:00,
2013-06-19 08:04:00,68.3,61.9,29.91,ESE,114,3.0,11.0,80,0.00,,,0.00,VWS V14.00,2013-06-19 13:04:00,
2013-06-19 08:09:00,68.6,61.8,29.91,East,87,4.0,7.0,79,0.00,,,0.00,VWS V14.00,2013-06-19 13:09:00,
2013-06-19 08:14:00,68.9,62.1,29.91,ESE,121,4.0,7.0,79,0.00,,,0.00,VWS V14.00,2013-06-19 13:14:00,
2013-06-19 08:19:00,69.3,62.2,29.91,East,101,2.0,8.0,78,0.00,,,0.00,VWS V14.00,2013-06-19 13:19:00,
2013-06-19 08:24:00,69.8,62.3,29.91,SE,127,4.0,11.0,77,0.00,,,0.00,VWS V14.00,2013-06-19 13:24:00,
2013-06-19 08:29:00,70.0,62.1,29.91,ESE,123,7.0,11.0,76,0.00,,,0.00,VWS V14.00,2013-06-19 13:29:00,
2013-06-19 08:34:00,70.3,62.8,29.91,ESE,121,10.0,11.0,77,0.00,,,0.00,VWS V14.00,2013-06-19 13:34:00,
2013-06-19 08:39:00,70.6,62.7,29.91,ESE,106,4.0,11.0,76,0.00,,,0.00,VWS V14.00,2013-06-19 13:39:00,
2013-06-19 08:44:00,70.8,62.9,29.91,SE,124,6.0,11.0,76,0.00,,,0.00,VWS V14.00,2013-06-19 13:44:00,
2013-06-19 08:49:00,71.0,63.1,29.91,South,188,7.0,12.0,76,0.00,,,0.00,VWS V14.00,2013-06-19 13:49:00,
2013-06-19 08:54:00,71.2,63.3,29.91,ESE,105,3.0,12.0,76,0.00,,,0.00,VWS V14.00,2013-06-19 13:54:00,
2013-06-19 08:59:00,71.4,63.5,29.91,WSW,240,2.0,12.0,76,0.00,,,0.00,VWS V14.00,2013-06-19 13:59:00,
2013-06-19 09:04:00,71.6,63.6,29.91,ESE,109,5.0,12.0,76,0.00,,,0.00,VWS V14.00,2013-06-19 14:04:00,
2013-06-19 09:09:00,71.7,63.7,29.91,ESE,119,7.0,7.0,76,0.00,,,0.00,VWS V14.00,2013-06-19 14:09:00,
2013-06-19 09:14:00,71.9,63.5,29.91,ESE,113,3.0,10.0,75,0.00,,,0.00,VWS V14.00,2013-06-19 14:14:00,
2013-06-19 09:19:00,72.3,63.9,29.92,East,84,7.0,11.0,75,0.00,,,0.00,VWS V14.00,2013-06-19 14:19:00,
2013-06-19 09:24:00,72.5,63.8,29.92,ESE,106,6.0,11.0,74,0.00,,,0.00,VWS V14.00,2013-06-19 14:24:00,
2013-06-19 09:29:00,72.9,64.1,29.91,East,91,7.0,11.0,74,0.00,,,0.00,VWS V14.00,2013-06-19 14:29:00,
2013-06-19 09:34:00,73.3,64.1,29.91,ESE,111,10.0,12.0,73,0.00,,,0.00,VWS V14.00,2013-06-19 14:34:00,
2013-06-19 09:39:00,73.8,64.6,29.91,SSE,153,8.0,10.0,73,0.00,,,0.00,VWS V14.00,2013-06-19 14:39:00,
2013-06-19 09:44:00,73.9,64.3,29.91,East,86,4.0,11.0,72,0.00,,,0.00,VWS V14.00,2013-06-19 14:44:00,
2013-06-19 09:49:00,73.9,64.3,29.91,ENE,67,6.0,11.0,72,0.00,,,0.00,VWS V14.00,2013-06-19 14:49:00,
2013-06-19 09:54:00,73.9,64.3,29.91,ESE,122,5.0,12.0,72,0.00,,,0.00,VWS V14.00,2013-06-19 14:54:00,
2013-06-19 09:59:00,74.3,64.7,29.91,ESE,122,0.0,13.0,72,0.00,,,0.00,VWS V14.00,2013-06-19 14:59:00,
2013-06-19 10:04:00,74.8,64.4,29.91,East,101,7.0,14.0,70,0.00,,,0.00,VWS V14.00,2013-06-19 15:04:00,
2013-06-19 10:09:00,75.1,65.1,29.90,SE,132,7.0,13.0,71,0.00,,,0.00,VWS V14.00,2013-06-19 15:09:00,
2013-06-19 10:14:00,75.5,64.6,29.90,East,95,2.0,13.0,69,0.00,,,0.00,VWS V14.00,2013-06-19 15:14:00,
2013-06-19 10:19:00,75.8,64.5,29.90,ESE,111,15.0,15.0,68,0.00,,,0.00,VWS V14.00,2013-06-19 15:19:00,
2013-06-19 10:24:00,75.7,64.4,29.90,ESE,108,7.0,15.0,68,0.00,,,0.00,VWS V14.00,2013-06-19 15:24:00,
2013-06-19 10:29:00,75.5,64.2,29.90,ESE,102,6.0,17.0,68,0.00,,,0.00,VWS V14.00,2013-06-19 15:29:00,
2013-06-19 10:34:00,75.7,64.4,29.91,SSE,152,8.0,17.0,68,0.00,,,0.00,VWS V14.00,2013-06-19 15:34:00,
2013-06-19 10:39:00,75.8,64.9,29.90,ESE,113,4.0,16.0,69,0.00,,,0.00,VWS V14.00,2013-06-19 15:39:00,
2013-06-19 10:44:00,76.0,64.7,29.90,SE,144,8.0,16.0,68,0.00,,,0.00,VWS V14.00,2013-06-19 15:44:00,
2013-06-19 10:49:00,76.2,64.9,29.90,ESE,119,6.0,16.0,68,0.00,,,0.00,VWS V14.00,2013-06-19 15:49:00,
2013-06-19 10:54:00,76.4,65.1,29.90,SE,142,3.0,16.0,68,0.00,,,0.00,VWS V14.00,2013-06-19 15:54:00,
2013-06-19 10:59:00,76.7,64.5,29.90,SE,134,1.0,16.0,66,0.00,,,0.00,VWS V14.00,2013-06-19 15:59:00,
2013-06-19 11:04:00,77.3,65.1,29.90,ESE,102,1.0,16.0,66,0.00,,,0.00,VWS V14.00,2013-06-19 16:04:00,
2013-06-19 11:09:00,77.7,64.6,29.89,SE,126,11.0,11.0,64,0.00,,,0.00,VWS V14.00,2013-06-19 16:09:00,
2013-06-19 11:14:00,77.9,64.8,29.89,ESE,105,6.0,12.0,64,0.00,,,0.00,VWS V14.00,2013-06-19 16:14:00,
2013-06-19 11:19:00,78.1,64.5,29.89,SSE,153,4.0,13.0,63,0.00,,,0.00,VWS V14.00,2013-06-19 16:19:00,
2013-06-19 11:24:00,78.0,63.5,29.90,ESE,103,5.0,13.0,61,0.00,,,0.00,VWS V14.00,2013-06-19 16:24:00,
2013-06-19 11:29:00,78.2,64.1,29.89,ESE,123,9.0,13.0,62,0.00,,,0.00,VWS V14.00,2013-06-19 16:29:00,
2013-06-19 11:34:00,78.7,64.6,29.89,SSE,158,9.0,13.0,62,0.00,,,0.00,VWS V14.00,2013-06-19 16:34:00,
2013-06-19 11:39:00,79.3,65.2,29.89,SE,146,6.0,12.0,62,0.00,,,0.00,VWS V14.00,2013-06-19 16:39:00,
2013-06-19 11:44:00,79.5,65.3,29.89,East,99,2.0,16.0,62,0.00,,,0.00,VWS V14.00,2013-06-19 16:44:00,
2013-06-19 11:49:00,79.8,65.2,29.89,SE,137,1.0,16.0,61,0.00,,,0.00,VWS V14.00,2013-06-19 16:49:00,
2013-06-19 11:54:00,80.7,65.5,29.89,South,173,5.0,16.0,60,0.00,,,0.00,VWS V14.00,2013-06-19 16:54:00,
2013-06-19 11:59:00,80.9,65.7,29.89,SE,141,6.0,16.0,60,0.00,,,0.00,VWS V14.00,2013-06-19 16:59:00,
2013-06-19 12:04:00,80.8,65.6,29.89,SSE,163,7.0,16.0,60,0.00,,,0.00,VWS V14.00,2013-06-19 17:04:00,
2013-06-19 12:09:00,81.0,65.8,29.89,SE,129,6.0,12.0,60,0.00,,,0.00,VWS V14.00,2013-06-19 17:09:00,
2013-06-19 12:14:00,81.4,66.2,29.88,SE,138,10.0,12.0,60,0.00,,,0.00,VWS V14.00,2013-06-19 17:14:00,
2013-06-19 12:19:00,81.8,66.6,29.89,SE,130,3.0,14.0,60,0.00,,,0.00,VWS V14.00,2013-06-19 17:19:00,
2013-06-19 12:24:00,81.8,66.6,29.88,SE,128,11.0,17.0,60,0.00,,,0.00,VWS V14.00,2013-06-19 17:24:00,
2013-06-19 12:29:00,81.5,66.3,29.88,SE,142,6.0,17.0,60,0.00,,,0.00,VWS V14.00,2013-06-19 17:29:00,
2013-06-19 12:34:00,81.7,66.5,29.88,SE,145,0.0,17.0,60,0.00,,,0.00,VWS V14.00,2013-06-19 17:34:00,
2013-06-19 12:39:00,82.3,66.6,29.88,East,90,5.0,16.0,59,0.00,,,0.00,VWS V14.00,2013-06-19 17:39:00,
2013-06-19 12:44:00,82.9,66.6,29.87,ESE,119,9.0,17.0,58,0.00,,,0.00,VWS V14.00,2013-06-19 17:44:00,
2013-06-19 12:49:00,83.2,66.9,29.87,ESE,115,12.0,18.0,58,0.00,,,0.00,VWS V14.00,2013-06-19 17:49:00,
2013-06-19 12:54:00,83.6,67.3,29.87,ESE,119,7.0,18.0,58,0.00,,,0.00,VWS V14.00,2013-06-19 17:54:00,
2013-06-19 12:59:00,83.9,66.5,29.87,SE,144,4.0,18.0,56,0.00,,,0.00,VWS V14.00,2013-06-19 17:59:00,
2013-06-19 13:04:00,84.4,67.0,29.87,West,261,12.0,18.0,56,0.00,,,0.00,VWS V14.00,2013-06-19 18:04:00,
2013-06-19 13:09:00,84.2,66.8,29.87,SSE,149,1.0,16.0,56,0.00,,,0.00,VWS V14.00,2013-06-19 18:09:00,
2013-06-19 13:14:00,84.0,66.6,29.87,SSE,161,0.0,16.0,56,0.00,,,0.00,VWS V14.00,2013-06-19 18:14:00,
2013-06-19 13:19:00,83.9,66.5,29.86,SSW,202,2.0,16.0,56,0.00,,,0.00,VWS V14.00,2013-06-19 18:19:00,
2013-06-19 13:24:00,84.4,67.5,29.86,SE,141,12.0,16.0,57,0.00,,,0.00,VWS V14.00,2013-06-19 18:24:00,
2013-06-19 13:29:00,84.7,67.3,29.86,SSE,150,7.0,16.0,56,0.00,,,0.00,VWS V14.00,2013-06-19 18:29:00,
2013-06-19 13:34:00,85.0,67.0,29.86,ESE,113,17.0,19.0,55,0.00,,,0.00,VWS V14.00,2013-06-19 18:34:00,
2013-06-19 13:39:00,85.3,66.8,29.86,South,187,7.0,15.0,54,0.00,,,0.00,VWS V14.00,2013-06-19 18:39:00,
2013-06-19 13:44:00,85.2,66.7,29.86,ESE,107,6.0,24.0,54,0.00,,,0.00,VWS V14.00,2013-06-19 18:44:00,
2013-06-19 13:48:00,84.9,66.4,29.86,SSE,160,5.0,24.0,54,0.00,,,0.00,VWS V14.00,2013-06-19 18:48:00,
2013-06-19 13:53:00,84.8,66.3,29.85,SSE,159,4.0,24.0,54,0.00,,,0.00,VWS V14.00,2013-06-19 18:53:00,
2013-06-19 13:58:00,84.5,66.1,29.86,SSE,154,10.0,24.0,54,0.00,,,0.00,VWS V14.00,2013-06-19 18:58:00,
2013-06-19 14:03:00,84.1,66.2,29.85,SSE,164,12.0,24.0,55,0.00,,,0.00,VWS V14.00,2013-06-19 19:03:00,
2013-06-19 14:08:00,84.4,66.5,29.85,ESE,119,7.0,17.0,55,0.00,,,0.00,VWS V14.00,2013-06-19 19:08:00,
2013-06-19 14:13:00,84.5,66.6,29.85,ENE,65,3.0,17.0,55,0.00,,,0.00,VWS V14.00,2013-06-19 19:13:00,
2013-06-19 14:18:00,84.8,66.8,29.85,SSE,156,10.0,21.0,55,0.00,,,0.00,VWS V14.00,2013-06-19 19:18:00,
2013-06-19 14:23:00,85.2,66.2,29.85,SSW,192,9.0,21.0,53,0.00,,,0.00,VWS V14.00,2013-06-19 19:23:00,
2013-06-19 14:28:00,85.7,66.6,29.85,ESE,119,11.0,21.0,53,0.00,,,0.00,VWS V14.00,2013-06-19 19:28:00,
2013-06-19 14:33:00,85.9,66.8,29.85,South,190,15.0,21.0,53,0.00,,,0.00,VWS V14.00,2013-06-19 19:33:00,
2013-06-19 14:38:00,85.6,66.0,29.85,SSE,161,0.0,16.0,52,0.00,,,0.00,VWS V14.00,2013-06-19 19:38:00,
2013-06-19 14:43:00,85.5,67.0,29.85,South,190,4.0,16.0,54,0.00,,,0.00,VWS V14.00,2013-06-19 19:43:00,
2013-06-19 14:48:00,85.7,66.1,29.84,SSE,148,3.0,16.0,52,0.00,,,0.00,VWS V14.00,2013-06-19 19:48:00,
2013-06-19 14:53:00,86.0,66.3,29.85,South,180,12.0,18.0,52,0.00,,,0.00,VWS V14.00,2013-06-19 19:53:00,
2013-06-19 14:58:00,86.0,66.3,29.85,SE,126,10.0,18.0,52,0.00,,,0.00,VWS V14.00,2013-06-19 19:58:00,
2013-06-19 15:03:00,85.6,66.0,29.84,SSW,202,1.0,18.0,52,0.00,,,0.00,VWS V14.00,2013-06-19 20:03:00,
2013-06-19 15:08:00,85.5,66.4,29.85,SSE,148,7.0,14.0,53,0.00,,,0.00,VWS V14.00,2013-06-19 20:08:00,
2013-06-19 15:13:00,85.4,65.8,29.85,South,171,10.0,14.0,52,0.00,,,0.00,VWS V14.00,2013-06-19 20:13:00,
2013-06-19 15:18:00,85.2,65.6,29.85,ENE,67,0.0,21.0,52,0.00,,,0.00,VWS V14.00,2013-06-19 20:18:00,
2013-06-19 15:23:00,85.1,65.5,29.85,South,186,9.0,21.0,52,0.00,,,0.00,VWS V14.00,2013-06-19 20:23:00,
2013-06-19 15:28:00,85.6,65.4,29.84,SE,138,7.0,21.0,51,0.00,,,0.00,VWS V14.00,2013-06-19 20:28:00,
2013-06-19 15:33:00,86.2,66.0,29.84,SE,136,9.0,21.0,51,0.00,,,0.00,VWS V14.00,2013-06-19 20:33:00,
2013-06-19 15:38:00,86.7,65.9,29.84,SE,132,13.0,13.0,50,0.00,,,0.00,VWS V14.00,2013-06-19 20:38:00,
2013-06-19 15:43:00,86.7,65.3,29.84,SSE,164,14.0,20.0,49,0.00,,,0.00,VWS V14.00,2013-06-19 20:43:00,
2013-06-19 15:48:00,86.7,65.3,29.84,ESE,109,12.0,20.0,49,0.00,,,0.00,VWS V14.00,2013-06-19 20:48:00,
2013-06-19 15:53:00,86.6,65.2,29.84,SSE,156,9.0,20.0,49,0.00,,,0.00,VWS V14.00,2013-06-19 20:53:00,
2013-06-19 15:58:00,86.3,64.9,29.84,SE,137,12.0,20.0,49,0.00,,,0.00,VWS V14.00,2013-06-19 20:58:00,
2013-06-19 16:03:00,85.7,64.9,29.84,East,81,10.0,20.0,50,0.00,,,0.00,VWS V14.00,2013-06-19 21:03:00,
2013-06-19 16:08:00,85.6,65.4,29.84,ENE,76,3.0,14.0,51,0.00,,,0.00,VWS V14.00,2013-06-19 21:08:00,
2013-06-19 16:13:00,86.0,64.6,29.84,ESE,121,3.0,19.0,49,0.00,,,0.00,VWS V14.00,2013-06-19 21:13:00,
2013-06-19 16:18:00,86.2,64.8,29.83,East,96,9.0,20.0,49,0.00,,,0.00,VWS V14.00,2013-06-19 21:18:00,
2013-06-19 16:23:00,86.1,64.1,29.83,SSE,167,11.0,20.0,48,0.00,,,0.00,VWS V14.00,2013-06-19 21:23:00,
2013-06-19 16:28:00,86.4,64.4,29.83,SE,136,10.0,20.0,48,0.00,,,0.00,VWS V14.00,2013-06-19 21:28:00,
2013-06-19 16:33:00,86.7,64.1,29.83,South,186,10.0,20.0,47,0.00,,,0.00,VWS V14.00,2013-06-19 21:33:00,
2013-06-19 16:38:00,87.1,64.4,29.83,ESE,114,12.0,16.0,47,0.00,,,0.00,VWS V14.00,2013-06-19 21:38:00,
2013-06-19 16:43:00,87.2,64.5,29.83,ESE,123,12.0,19.0,47,0.00,,,0.00,VWS V14.00,2013-06-19 21:43:00,
2013-06-19 16:48:00,87.3,64.0,29.82,SSE,152,7.0,19.0,46,0.00,,,0.00,VWS V14.00,2013-06-19 21:48:00,
2013-06-19 16:53:00,87.1,63.8,29.82,ESE,110,1.0,19.0,46,0.00,,,0.00,VWS V14.00,2013-06-19 21:53:00,
2013-06-19 16:58:00,86.5,63.3,29.82,SE,132,12.0,21.0,46,0.00,,,0.00,VWS V14.00,2013-06-19 21:58:00,
2013-06-19 17:03:00,85.9,63.3,29.82,SE,134,11.0,21.0,47,0.00,,,0.00,VWS V14.00,2013-06-19 22:03:00,
2013-06-19 17:08:00,85.8,63.9,29.82,SE,128,6.0,18.0,48,0.00,,,0.00,VWS V14.00,2013-06-19 22:08:00,
2013-06-19 17:13:00,85.6,63.1,29.82,SSE,153,11.0,18.0,47,0.00,,,0.00,VWS V14.00,2013-06-19 22:13:00,
2013-06-19 17:18:00,85.5,63.6,29.82,SW,223,0.0,18.0,48,0.00,,,0.00,VWS V14.00,2013-06-19 22:18:00,
2013-06-19 17:23:00,85.8,63.9,29.82,SE,142,11.0,18.0,48,0.00,,,0.00,VWS V14.00,2013-06-19 22:23:00,
2013-06-19 17:28:00,85.7,63.8,29.82,SSE,154,12.0,21.0,48,0.00,,,0.00,VWS V14.00,2013-06-19 22:28:00,
2013-06-19 17:33:00,85.5,64.2,29.81,ESE,110,15.0,21.0,49,0.00,,,0.00,VWS V14.00,2013-06-19 22:33:00,
2013-06-19 17:38:00,85.7,63.8,29.81,East,88,5.0,15.0,48,0.00,,,0.00,VWS V14.00,2013-06-19 22:38:00,
2013-06-19 17:43:00,86.1,63.5,29.81,South,190,0.0,15.0,47,0.00,,,0.00,VWS V14.00,2013-06-19 22:43:00,
2013-06-19 17:48:00,86.4,63.2,29.81,SE,142,1.0,15.0,46,0.00,,,0.00,VWS V14.00,2013-06-19 22:48:00,
2013-06-19 17:53:00,86.5,63.3,29.81,South,178,0.0,15.0,46,0.00,,,0.00,VWS V14.00,2013-06-19 22:53:00,
2013-06-19 17:58:00,86.6,63.4,29.81,SE,145,2.0,18.0,46,0.00,,,0.00,VWS V14.00,2013-06-19 22:58:00,
2013-06-19 18:03:00,86.5,63.3,29.81,SSE,159,5.0,18.0,46,0.00,,,0.00,VWS V14.00,2013-06-19 23:03:00,
2013-06-19 18:08:00,86.4,62.6,29.81,East,84,0.0,13.0,45,0.00,,,0.00,VWS V14.00,2013-06-19 23:08:00,
2013-06-19 18:13:00,86.2,63.0,29.81,SE,142,3.0,19.0,46,0.00,,,0.00,VWS V14.00,2013-06-19 23:13:00,
2013-06-19 18:18:00,86.2,63.6,29.80,South,178,1.0,19.0,47,0.00,,,0.00,VWS V14.00,2013-06-19 23:18:00,
2013-06-19 18:23:00,86.3,63.7,29.80,ESE,111,9.0,19.0,47,0.00,,,0.00,VWS V14.00,2013-06-19 23:23:00,
2013-06-19 18:28:00,86.0,63.4,29.80,ESE,104,5.0,19.0,47,0.00,,,0.00,VWS V14.00,2013-06-19 23:28:00,
2013-06-19 18:33:00,85.9,63.3,29.80,South,183,2.0,19.0,47,0.00,,,0.00,VWS V14.00,2013-06-19 23:33:00,
2013-06-19 18:38:00,85.8,63.3,29.81,SSE,148,9.0,17.0,47,0.00,,,0.00,VWS V14.00,2013-06-19 23:38:00,
2013-06-19 18:43:00,85.6,63.7,29.80,SE,134,3.0,17.0,48,0.00,,,0.00,VWS V14.00,2013-06-19 23:43:00,
2013-06-19 18:48:00,85.6,63.7,29.80,ESE,105,0.0,17.0,48,0.00,,,0.00,VWS V14.00,2013-06-19 23:48:00,
2013-06-19 18:53:00,85.7,63.2,29.80,SE,144,4.0,17.0,47,0.00,,,0.00,VWS V14.00,2013-06-19 23:53:00,
2013-06-19 18:58:00,85.7,61.9,29.80,SSE,165,7.0,19.0,45,0.00,,,0.00,VWS V14.00,2013-06-19 23:58:00,
2013-06-19 19:03:00,85.6,62.5,29.80,SSE,163,12.0,19.0,46,0.00,,,0.00,VWS V14.00,2013-06-20 00:03:00,
2013-06-19 19:08:00,85.5,62.4,29.80,SSE,148,9.0,14.0,46,0.00,,,0.00,VWS V14.00,2013-06-20 00:08:00,
2013-06-19 19:13:00,85.4,62.9,29.80,South,172,4.0,14.0,47,0.00,,,0.00,VWS V14.00,2013-06-20 00:13:00,
2013-06-19 19:18:00,85.2,62.7,29.80,SE,134,8.0,16.0,47,0.00,,,0.00,VWS V14.00,2013-06-20 00:18:00,
2013-06-19 19:23:00,85.0,62.5,29.80,SE,145,10.0,16.0,47,0.00,,,0.00,VWS V14.00,2013-06-20 00:23:00,
2013-06-19 19:28:00,84.9,63.0,29.80,SSE,157,10.0,16.0,48,0.00,,,0.00,VWS V14.00,2013-06-20 00:28:00,
2013-06-19 19:32:00,84.7,62.9,29.80,SE,137,4.0,16.0,48,0.00,,,0.00,VWS V14.00,2013-06-20 00:32:00,
2013-06-19 19:37:00,84.5,62.7,29.80,SSW,207,7.0,17.0,48,0.00,,,0.00,VWS V14.00,2013-06-20 00:37:00,
2013-06-19 19:42:00,84.3,63.1,29.80,SE,134,9.0,17.0,49,0.00,,,0.00,VWS V14.00,2013-06-20 00:42:00,
2013-06-19 19:47:00,84.2,63.0,29.81,SE,142,1.0,17.0,49,0.00,,,0.00,VWS V14.00,2013-06-20 00:47:00,
2013-06-19 19:52:00,84.1,62.9,29.80,SSE,163,0.0,17.0,49,0.00,,,0.00,VWS V14.00,2013-06-20 00:52:00,
2013-06-19 19:57:00,83.9,63.3,29.80,South,176,7.0,17.0,50,0.00,,,0.00,VWS V14.00,2013-06-20 00:57:00,
2013-06-19 20:02:00,83.8,63.2,29.80,SSE,148,0.0,17.0,50,0.00,,,0.00,VWS V14.00,2013-06-20 01:02:00,
2013-06-19 20:07:00,83.6,63.0,29.80,ESE,121,11.0,16.0,50,0.00,,,0.00,VWS V14.00,2013-06-20 01:07:00,
2013-06-19 20:12:00,83.4,62.8,29.80,SE,128,13.0,16.0,50,0.00,,,0.00,VWS V14.00,2013-06-20 01:12:00,
2013-06-19 20:17:00,83.1,63.1,29.80,SSE,159,1.0,16.0,51,0.00,,,0.00,VWS V14.00,2013-06-20 01:17:00,
2013-06-19 20:22:00,82.9,62.9,29.80,ESE,115,11.0,16.0,51,0.00,,,0.00,VWS V14.00,2013-06-20 01:22:00,
2013-06-19 20:27:00,82.7,62.8,29.80,SSE,155,6.0,16.0,51,0.00,,,0.00,VWS V14.00,2013-06-20 01:27:00,
2013-06-19 20:32:00,82.5,63.1,29.80,SE,145,0.0,16.0,52,0.00,,,0.00,VWS V14.00,2013-06-20 01:32:00,
2013-06-19 20:37:00,82.2,62.8,29.80,ESE,112,0.0,13.0,52,0.00,,,0.00,VWS V14.00,2013-06-20 01:37:00,
2013-06-19 20:42:00,81.9,63.1,29.80,SE,140,9.0,13.0,53,0.00,,,0.00,VWS V14.00,2013-06-20 01:42:00,
2013-06-19 20:47:00,81.6,62.8,29.80,ESE,106,0.0,13.0,53,0.00,,,0.00,VWS V14.00,2013-06-20 01:47:00,
2013-06-19 20:52:00,81.4,63.2,29.80,SE,125,5.0,13.0,54,0.00,,,0.00,VWS V14.00,2013-06-20 01:52:00,
2013-06-19 20:57:00,81.1,62.9,29.80,ESE,112,0.0,13.0,54,0.00,,,0.00,VWS V14.00,2013-06-20 01:57:00,
2013-06-19 21:02:00,80.9,62.7,29.81,SE,144,6.0,13.0,54,0.00,,,0.00,VWS V14.00,2013-06-20 02:02:00,
2013-06-19 21:07:00,80.6,63.0,29.81,SE,131,5.0,6.0,55,0.00,,,0.00,VWS V14.00,2013-06-20 02:07:00,
2013-06-19 21:12:00,80.3,62.7,29.81,SSE,159,4.0,10.0,55,0.00,,,0.00,VWS V14.00,2013-06-20 02:12:00,
2013-06-19 21:17:00,80.1,62.5,29.81,SSE,159,0.0,10.0,55,0.00,,,0.00,VWS V14.00,2013-06-20 02:17:00,
2013-06-19 21:22:00,79.8,62.2,29.81,SE,138,5.0,10.0,55,0.00,,,0.00,VWS V14.00,2013-06-20 02:22:00,
2013-06-19 21:27:00,79.6,62.0,29.81,SSE,162,1.0,10.0,55,0.00,,,0.00,VWS V14.00,2013-06-20 02:27:00,
2013-06-19 21:32:00,79.4,61.8,29.82,SSE,165,5.0,12.0,55,0.00,,,0.00,VWS V14.00,2013-06-20 02:32:00,
2013-06-19 21:37:00,79.3,61.8,29.82,ESE,122,6.0,9.0,55,0.00,,,0.00,VWS V14.00,2013-06-20 02:37:00,
2013-06-19 21:42:00,79.1,61.6,29.82,East,82,3.0,9.0,55,0.00,,,0.00,VWS V14.00,2013-06-20 02:42:00,
2013-06-19 21:47:00,78.9,60.9,29.82,SE,145,4.0,11.0,54,0.00,,,0.00,VWS V14.00,2013-06-20 02:47:00,
2013-06-19 21:52:00,78.7,60.7,29.83,SSE,148,5.0,13.0,54,0.00,,,0.00,VWS V14.00,2013-06-20 02:52:00,
2013-06-19 21:57:00,78.6,60.6,29.83,SSE,167,4.0,13.0,54,0.00,,,0.00,VWS V14.00,2013-06-20 02:57:00,
2013-06-19 22:02:00,78.4,60.9,29.83,SSE,150,0.0,13.0,55,0.00,,,0.00,VWS V14.00,2013-06-20 03:02:00,
2013-06-19 22:07:00,78.3,60.8,29.83,South,170,4.0,7.0,55,0.00,,,0.00,VWS V14.00,2013-06-20 03:07:00,
2013-06-19 22:12:00,78.1,61.1,29.83,ESE,114,0.0,10.0,56,0.00,,,0.00,VWS V14.00,2013-06-20 03:12:00,
2013-06-19 22:17:00,77.9,61.0,29.84,ESE,102,3.0,10.0,56,0.00,,,0.00,VWS V14.00,2013-06-20 03:17:00,
2013-06-19 22:22:00,77.6,61.2,29.84,South,172,2.0,11.0,57,0.00,,,0.00,VWS V14.00,2013-06-20 03:22:00,
2013-06-19 22:27:00,77.3,60.9,29.84,SE,140,9.0,11.0,57,0.00,,,0.00,VWS V14.00,2013-06-20 03:27:00,
2013-06-19 22:32:00,77.1,61.2,29.84,SE,143,6.0,12.0,58,0.00,,,0.00,VWS V14.00,2013-06-20 03:32:00,
2013-06-19 22:37:00,76.8,61.4,29.84,South,175,5.0,5.0,59,0.00,,,0.00,VWS V14.00,2013-06-20 03:37:00,
2013-06-19 22:42:00,76.7,61.3,29.84,SSE,149,5.0,12.0,59,0.00,,,0.00,VWS V14.00,2013-06-20 03:42:00,
2013-06-19 22:47:00,76.5,61.6,29.84,SE,134,5.0,12.0,60,0.00,,,0.00,VWS V14.00,2013-06-20 03:47:00,
2013-06-19 22:52:00,76.4,61.5,29.84,SSE,163,4.0,12.0,60,0.00,,,0.00,VWS V14.00,2013-06-20 03:52:00,
2013-06-19 22:57:00,76.3,61.4,29.85,SE,146,1.0,12.0,60,0.00,,,0.00,VWS V14.00,2013-06-20 03:57:00,
2013-06-19 23:01:00,76.3,61.4,29.85,SSE,150,6.0,12.0,60,0.00,,,0.00,VWS V14.00,2013-06-20 04:01:00,
2013-06-19 23:03:00,76.3,61.4,29.85,SE,137,0.0,12.0,60,0.00,,,0.00,VWS V14.00,2013-06-20 04:03:00,
2013-06-19 23:08:00,76.3,61.4,29.85,SE,146,0.0,8.0,60,0.00,,,0.00,VWS V14.00,2013-06-20 04:08:00,
2013-06-19 23:13:00,76.3,61.9,29.85,SSE,153,5.0,13.0,61,0.00,,,0.00,VWS V14.00,2013-06-20 04:13:00,
2013-06-19 23:18:00,76.3,61.9,29.85,SSE,155,3.0,13.0,61,0.00,,,0.00,VWS V14.00,2013-06-20 04:18:00,
2013-06-19 23:23:00,76.2,61.8,29.85,South,188,9.0,13.0,61,0.00,,,0.00,VWS V14.00,2013-06-20 04:23:00,
2013-06-19 23:28:00,76.1,61.7,29.85,SSE,162,4.0,13.0,61,0.00,,,0.00,VWS V14.00,2013-06-20 04:28:00,
2013-06-19 23:33:00,76.0,61.6,29.85,SE,143,5.0,13.0,61,0.00,,,0.00,VWS V14.00,2013-06-20 04:33:00,
2013-06-19 23:38:00,76.0,61.6,29.85,SE,132,4.0,7.0,61,0.00,,,0.00,VWS V14.00,2013-06-20 04:38:00,
2013-06-19 23:43:00,75.8,61.9,29.85,South,175,4.0,11.0,62,0.00,,,0.00,VWS V14.00,2013-06-20 04:43:00,
2013-06-19 23:48:00,75.7,61.8,29.85,SE,144,4.0,11.0,62,0.00,,,0.00,VWS V14.00,2013-06-20 04:48:00,
2013-06-19 23:53:00,75.6,61.7,29.85,SE,139,9.0,11.0,62,0.00,,,0.00,VWS V14.00,2013-06-20 04:53:00,
2013-06-19 23:58:00,75.5,62.0,29.85,SSE,157,3.0,11.0,63,0.00,,,0.00,VWS V14.00,2013-06-20 04:58:00,